Year,Month,Day,Hour,Minute,Value (Times are PST for temperature in C)
2012,06,21,00,00,12.30
2012,06,21,00,01,12.20
2012,06,21,00,02,12.20
2012,06,21,00,03,12.20
2012,06,21,00,04,12.20
2012,06,21,00,05,12.20
2012,06,21,00,06,12.20
2012,06,21,00,07,12.20
2012,06,21,00,08,12.10
2012,06,21,00,09,12.10
2012,06,21,00,10,12.10
2012,06,21,00,11,12.10
2012,06,21,00,12,12.10
2012,06,21,00,13,12.10
2012,06,21,00,14,12.10
2012,06,21,00,15,12.10
2012,06,21,00,16,12.10
2012,06,21,00,17,12.10
2012,06,21,00,18,12.10
2012,06,21,00,19,12.10
2012,06,21,00,20,12.10
2012,06,21,00,21,12.10
2012,06,21,00,22,12.10
2012,06,21,00,23,12.10
2012,06,21,00,24,12.20
2012,06,21,00,25,12.20
2012,06,21,00,26,12.20
2012,06,21,00,27,12.20
2012,06,21,00,28,12.20
2012,06,21,00,29,12.20
2012,06,21,00,30,12.20
2012,06,21,00,31,12.20
2012,06,21,00,32,12.20
2012,06,21,00,33,12.20
2012,06,21,00,34,12.20
2012,06,21,00,35,12.20
2012,06,21,00,36,12.20
2012,06,21,00,37,12.20
2012,06,21,00,38,12.20
2012,06,21,00,39,12.20
2012,06,21,00,40,12.20
2012,06,21,00,41,12.20
2012,06,21,00,42,12.20
2012,06,21,00,43,12.20
2012,06,21,00,44,12.20
2012,06,21,00,45,12.20
2012,06,21,00,46,12.20
2012,06,21,00,47,12.20
2012,06,21,00,48,12.20
2012,06,21,00,49,12.20
2012,06,21,00,50,12.20
2012,06,21,00,51,12.20
2012,06,21,00,52,12.20
2012,06,21,00,53,12.20
2012,06,21,00,54,12.20
2012,06,21,00,55,12.20
2012,06,21,00,56,12.20
2012,06,21,00,57,12.20
2012,06,21,00,58,12.20
2012,06,21,00,59,12.20
2012,06,21,01,00,12.20
2012,06,21,01,01,12.20
2012,06,21,01,02,12.20
2012,06,21,01,03,12.20
2012,06,21,01,04,12.20
2012,06,21,01,05,12.20
2012,06,21,01,06,12.20
2012,06,21,01,07,12.20
2012,06,21,01,08,12.20
2012,06,21,01,09,12.20
2012,06,21,01,10,12.20
2012,06,21,01,11,12.20
2012,06,21,01,12,12.20
2012,06,21,01,13,12.20
2012,06,21,01,14,12.20
2012,06,21,01,15,12.20
2012,06,21,01,16,12.20
2012,06,21,01,17,12.20
2012,06,21,01,18,12.20
2012,06,21,01,19,12.20
2012,06,21,01,20,12.20
2012,06,21,01,21,12.10
2012,06,21,01,22,12.10
2012,06,21,01,23,12.10
2012,06,21,01,24,12.10
2012,06,21,01,25,12.10
2012,06,21,01,26,12.10
2012,06,21,01,27,12.00
2012,06,21,01,28,12.00
2012,06,21,01,29,12.00
2012,06,21,01,30,12.00
2012,06,21,01,31,12.00
2012,06,21,01,32,12.00
2012,06,21,01,33,12.00
2012,06,21,01,34,12.00
2012,06,21,01,35,12.00
2012,06,21,01,36,12.00
2012,06,21,01,37,11.90
2012,06,21,01,38,11.90
2012,06,21,01,39,11.90
2012,06,21,01,40,11.90
2012,06,21,01,41,11.90
2012,06,21,01,42,11.90
2012,06,21,01,43,11.90
2012,06,21,01,44,11.90
2012,06,21,01,45,11.90
2012,06,21,01,46,11.90
2012,06,21,01,47,11.90
2012,06,21,01,48,11.90
2012,06,21,01,49,11.90
2012,06,21,01,50,11.90
2012,06,21,01,51,11.90
2012,06,21,01,52,12.00
2012,06,21,01,53,12.00
2012,06,21,01,54,12.00
2012,06,21,01,55,11.90
2012,06,21,01,56,12.00
2012,06,21,01,57,11.90
2012,06,21,01,58,11.90
2012,06,21,01,59,11.90
2012,06,21,02,00,11.90
2012,06,21,02,01,11.90
2012,06,21,02,02,11.90
2012,06,21,02,03,11.90
2012,06,21,02,04,11.90
2012,06,21,02,05,12.00
2012,06,21,02,06,12.00
2012,06,21,02,07,12.00
2012,06,21,02,08,12.00
2012,06,21,02,09,12.00
2012,06,21,02,10,12.00
2012,06,21,02,11,12.00
2012,06,21,02,12,12.00
2012,06,21,02,13,12.00
2012,06,21,02,14,12.00
2012,06,21,02,15,12.00
2012,06,21,02,16,12.00
2012,06,21,02,17,12.10
2012,06,21,02,18,12.10
2012,06,21,02,19,12.10
2012,06,21,02,20,12.10
2012,06,21,02,21,12.10
2012,06,21,02,22,12.10
2012,06,21,02,23,12.10
2012,06,21,02,24,12.10
2012,06,21,02,25,12.10
2012,06,21,02,26,12.10
2012,06,21,02,27,12.10
2012,06,21,02,28,12.10
2012,06,21,02,29,12.10
2012,06,21,02,30,12.10
2012,06,21,02,31,12.10
2012,06,21,02,32,12.10
2012,06,21,02,33,12.10
2012,06,21,02,34,12.10
2012,06,21,02,35,12.10
2012,06,21,02,36,12.10
2012,06,21,02,37,12.10
2012,06,21,02,38,12.10
2012,06,21,02,39,12.10
2012,06,21,02,40,12.10
2012,06,21,02,41,12.10
2012,06,21,02,42,12.10
2012,06,21,02,43,12.10
2012,06,21,02,44,12.10
2012,06,21,02,45,12.10
2012,06,21,02,46,12.10
2012,06,21,02,47,12.10
2012,06,21,02,48,12.10
2012,06,21,02,49,12.10
2012,06,21,02,50,12.10
2012,06,21,02,51,12.10
2012,06,21,02,52,12.10
2012,06,21,02,53,12.10
2012,06,21,02,54,12.10
2012,06,21,02,55,12.10
2012,06,21,02,56,12.10
2012,06,21,02,57,12.10
2012,06,21,02,58,12.10
2012,06,21,02,59,12.10
2012,06,21,03,00,12.10
2012,06,21,03,01,12.10
2012,06,21,03,02,12.10
2012,06,21,03,03,12.10
2012,06,21,03,06,12.10
2012,06,21,03,07,12.10
2012,06,21,03,08,12.10
2012,06,21,03,09,12.10
2012,06,21,03,10,12.10
2012,06,21,03,11,12.10
2012,06,21,03,12,12.10
2012,06,21,03,13,12.10
2012,06,21,03,14,12.10
2012,06,21,03,15,12.10
2012,06,21,03,16,12.10
2012,06,21,03,17,12.10
2012,06,21,03,18,12.10
2012,06,21,03,19,12.10
2012,06,21,03,20,12.10
2012,06,21,03,21,12.10
2012,06,21,03,22,12.10
2012,06,21,03,23,12.10
2012,06,21,03,24,12.10
2012,06,21,03,25,12.10
2012,06,21,03,26,12.10
2012,06,21,03,27,12.10
2012,06,21,03,28,12.10
2012,06,21,03,29,12.10
2012,06,21,03,30,12.10
2012,06,21,03,31,12.10
2012,06,21,03,32,12.10
2012,06,21,03,33,12.10
2012,06,21,03,34,12.10
2012,06,21,03,35,12.10
2012,06,21,03,36,12.10
2012,06,21,03,37,12.10
2012,06,21,03,38,12.10
2012,06,21,03,39,12.10
2012,06,21,03,40,12.10
2012,06,21,03,41,12.10
2012,06,21,03,42,12.10
2012,06,21,03,43,12.10
2012,06,21,03,44,12.10
2012,06,21,03,45,12.10
2012,06,21,03,46,12.10
2012,06,21,03,47,12.10
2012,06,21,03,48,12.00
2012,06,21,03,49,12.00
2012,06,21,03,50,12.10
2012,06,21,03,51,12.00
2012,06,21,03,52,12.00
2012,06,21,03,53,12.00
2012,06,21,03,54,12.00
2012,06,21,03,55,12.00
2012,06,21,03,56,12.00
2012,06,21,03,57,12.00
2012,06,21,03,58,12.00
2012,06,21,03,59,12.00
2012,06,21,04,00,12.00
2012,06,21,04,01,12.00
2012,06,21,04,02,12.00
2012,06,21,04,03,12.00
2012,06,21,04,04,12.00
2012,06,21,04,05,12.00
2012,06,21,04,06,12.00
2012,06,21,04,07,12.00
2012,06,21,04,08,11.90
2012,06,21,04,09,11.90
2012,06,21,04,10,11.90
2012,06,21,04,11,11.90
2012,06,21,04,12,11.90
2012,06,21,04,13,11.90
2012,06,21,04,14,11.90
2012,06,21,04,15,11.90
2012,06,21,04,16,11.90
2012,06,21,04,17,11.90
2012,06,21,04,18,11.90
2012,06,21,04,19,11.90
2012,06,21,04,20,11.90
2012,06,21,04,21,11.90
2012,06,21,04,22,11.90
2012,06,21,04,23,11.90
2012,06,21,04,24,11.90
2012,06,21,04,25,11.90
2012,06,21,04,26,11.90
2012,06,21,04,27,11.90
2012,06,21,04,28,11.90
2012,06,21,04,29,11.90
2012,06,21,04,30,11.90
2012,06,21,04,31,11.90
2012,06,21,04,32,11.90
2012,06,21,04,33,11.80
2012,06,21,04,34,11.80
2012,06,21,04,35,11.80
2012,06,21,04,36,11.80
2012,06,21,04,37,11.80
2012,06,21,04,38,11.80
2012,06,21,04,39,11.80
2012,06,21,04,40,11.80
2012,06,21,04,41,11.80
2012,06,21,04,42,11.80
2012,06,21,04,43,11.70
2012,06,21,04,44,11.70
2012,06,21,04,45,11.70
2012,06,21,04,46,11.70
2012,06,21,04,47,11.70
2012,06,21,04,48,11.70
2012,06,21,04,49,11.60
2012,06,21,04,50,11.60
2012,06,21,04,51,11.60
2012,06,21,04,52,11.60
2012,06,21,04,53,11.60
2012,06,21,04,54,11.60
2012,06,21,04,55,11.60
2012,06,21,04,56,11.60
2012,06,21,04,57,11.60
2012,06,21,04,58,11.50
2012,06,21,04,59,11.50
2012,06,21,05,00,11.50
2012,06,21,05,01,11.50
2012,06,21,05,02,11.50
2012,06,21,05,03,11.50
2012,06,21,05,04,11.40
2012,06,21,05,05,11.40
2012,06,21,05,06,11.40
2012,06,21,05,07,11.40
2012,06,21,05,08,11.40
2012,06,21,05,09,11.30
2012,06,21,05,10,11.30
2012,06,21,05,11,11.30
2012,06,21,05,12,11.20
2012,06,21,05,13,11.20
2012,06,21,05,14,11.20
2012,06,21,05,15,11.20
2012,06,21,05,16,11.10
2012,06,21,05,17,11.10
2012,06,21,05,18,11.10
2012,06,21,05,19,11.10
2012,06,21,05,20,11.00
2012,06,21,05,21,11.00
2012,06,21,05,22,11.00
2012,06,21,05,23,11.00
2012,06,21,05,24,10.90
2012,06,21,05,25,10.90
2012,06,21,05,26,10.90
2012,06,21,05,27,10.90
2012,06,21,05,28,10.80
2012,06,21,05,29,10.80
2012,06,21,05,30,10.80
2012,06,21,05,31,10.80
2012,06,21,05,32,10.80
2012,06,21,05,33,10.80
2012,06,21,05,34,10.80
2012,06,21,05,35,10.80
2012,06,21,05,36,10.80
2012,06,21,05,37,10.80
2012,06,21,05,38,10.80
2012,06,21,05,39,10.80
2012,06,21,05,40,10.80
2012,06,21,05,41,10.70
2012,06,21,05,42,10.70
2012,06,21,05,43,10.70
2012,06,21,05,44,10.70
2012,06,21,05,45,10.70
2012,06,21,05,46,10.70
2012,06,21,05,47,10.70
2012,06,21,05,48,10.60
2012,06,21,05,49,10.60
2012,06,21,05,50,10.60
2012,06,21,05,51,10.60
2012,06,21,05,52,10.60
2012,06,21,05,53,10.60
2012,06,21,05,54,10.60
2012,06,21,05,55,10.60
2012,06,21,05,56,10.60
2012,06,21,05,57,10.60
2012,06,21,05,58,10.60
2012,06,21,05,59,10.50
2012,06,21,06,00,10.50
2012,06,21,06,01,10.50
2012,06,21,06,02,10.50
2012,06,21,06,03,10.50
2012,06,21,06,04,10.50
2012,06,21,06,05,10.50
2012,06,21,06,06,10.50
2012,06,21,06,07,10.50
2012,06,21,06,08,10.50
2012,06,21,06,09,10.50
2012,06,21,06,10,10.60
2012,06,21,06,11,10.60
2012,06,21,06,12,10.60
2012,06,21,06,13,10.60
2012,06,21,06,14,10.60
2012,06,21,06,15,10.60
2012,06,21,06,16,10.60
2012,06,21,06,17,10.70
2012,06,21,06,18,10.70
2012,06,21,06,19,10.70
2012,06,21,06,20,10.70
2012,06,21,06,21,10.70
2012,06,21,06,22,10.70
2012,06,21,06,23,10.70
2012,06,21,06,24,10.70
2012,06,21,06,25,10.80
2012,06,21,06,26,10.80
2012,06,21,06,27,10.80
2012,06,21,06,28,10.80
2012,06,21,06,29,10.80
2012,06,21,06,30,10.80
2012,06,21,06,31,10.90
2012,06,21,06,32,10.90
2012,06,21,06,33,10.90
2012,06,21,06,34,11.00
2012,06,21,06,35,11.00
2012,06,21,06,36,11.00
2012,06,21,06,37,11.10
2012,06,21,06,38,11.10
2012,06,21,06,39,11.10
2012,06,21,06,40,11.20
2012,06,21,06,41,11.20
2012,06,21,06,42,11.20
2012,06,21,06,43,11.20
2012,06,21,06,44,11.30
2012,06,21,06,45,11.30
2012,06,21,06,46,11.30
2012,06,21,06,47,11.40
2012,06,21,06,48,11.40
2012,06,21,06,49,11.40
2012,06,21,06,50,11.50
2012,06,21,06,51,11.60
2012,06,21,06,52,11.60
2012,06,21,06,53,11.60
2012,06,21,06,54,11.70
2012,06,21,06,55,11.70
2012,06,21,06,56,11.80
2012,06,21,06,57,11.80
2012,06,21,06,58,11.80
2012,06,21,06,59,11.90
2012,06,21,07,00,11.90
2012,06,21,07,01,11.90
2012,06,21,07,02,12.00
2012,06,21,07,03,12.00
2012,06,21,07,04,12.10
2012,06,21,07,05,12.10
2012,06,21,07,06,12.10
2012,06,21,07,07,12.20
2012,06,21,07,08,12.20
2012,06,21,07,09,12.30
2012,06,21,07,10,12.30
2012,06,21,07,11,12.30
2012,06,21,07,12,12.40
2012,06,21,07,13,12.40
2012,06,21,07,14,12.40
2012,06,21,07,15,12.50
2012,06,21,07,16,12.60
2012,06,21,07,17,12.60
2012,06,21,07,18,12.70
2012,06,21,07,19,12.70
2012,06,21,07,20,12.70
2012,06,21,07,21,12.80
2012,06,21,07,22,12.80
2012,06,21,07,23,12.80
2012,06,21,07,24,12.90
2012,06,21,07,25,12.90
2012,06,21,07,26,12.90
2012,06,21,07,27,12.90
2012,06,21,07,28,13.00
2012,06,21,07,29,13.00
2012,06,21,07,30,13.10
2012,06,21,07,31,13.10
2012,06,21,07,32,13.20
2012,06,21,07,33,13.20
2012,06,21,07,34,13.30
2012,06,21,07,35,13.40
2012,06,21,07,36,13.50
2012,06,21,07,37,13.50
2012,06,21,07,38,13.60
2012,06,21,07,39,13.70
2012,06,21,07,40,13.70
2012,06,21,07,41,13.80
2012,06,21,07,42,13.90
2012,06,21,07,43,14.00
2012,06,21,07,44,14.00
2012,06,21,07,45,14.10
2012,06,21,07,46,14.20
2012,06,21,07,47,14.30
2012,06,21,07,48,14.30
2012,06,21,07,49,14.40
2012,06,21,07,50,14.50
2012,06,21,07,51,14.60
2012,06,21,07,52,14.70
2012,06,21,07,53,14.80
2012,06,21,07,54,15.00
2012,06,21,07,55,15.00
2012,06,21,07,56,15.00
2012,06,21,07,57,15.10
2012,06,21,07,58,15.30
2012,06,21,07,59,15.30
2012,06,21,08,00,15.50
2012,06,21,08,01,15.50
2012,06,21,08,02,15.60
2012,06,21,08,03,15.70
2012,06,21,08,04,15.80
2012,06,21,08,05,15.80
2012,06,21,08,06,15.90
2012,06,21,08,07,15.90
2012,06,21,08,08,16.00
2012,06,21,08,09,16.10
2012,06,21,08,10,16.20
2012,06,21,08,11,16.20
2012,06,21,08,12,16.30
2012,06,21,08,13,16.30
2012,06,21,08,14,16.40
2012,06,21,08,15,16.40
2012,06,21,08,16,16.40
2012,06,21,08,17,16.50
2012,06,21,08,18,16.50
2012,06,21,08,19,16.60
2012,06,21,08,20,16.50
2012,06,21,08,21,16.50
2012,06,21,08,22,16.50
2012,06,21,08,23,16.50
2012,06,21,08,24,16.50
2012,06,21,08,25,16.50
2012,06,21,08,26,16.60
2012,06,21,08,27,16.60
2012,06,21,08,28,16.60
2012,06,21,08,29,16.70
2012,06,21,08,30,16.70
2012,06,21,08,31,16.70
2012,06,21,08,32,16.80
2012,06,21,08,33,16.80
2012,06,21,08,34,16.90
2012,06,21,08,35,16.90
2012,06,21,08,36,16.90
2012,06,21,08,37,17.00
2012,06,21,08,38,17.00
2012,06,21,08,39,17.10
2012,06,21,08,40,17.10
2012,06,21,08,41,17.20
2012,06,21,08,42,17.20
2012,06,21,08,43,17.30
2012,06,21,08,44,17.30
2012,06,21,08,45,17.30
2012,06,21,08,46,17.40
2012,06,21,08,47,17.40
2012,06,21,08,48,17.50
2012,06,21,08,49,17.50
2012,06,21,08,50,17.60
2012,06,21,08,51,17.60
2012,06,21,08,52,17.70
2012,06,21,08,53,17.70
2012,06,21,08,54,17.80
2012,06,21,08,55,17.90
2012,06,21,08,56,17.90
2012,06,21,08,57,18.00
2012,06,21,08,58,18.00
2012,06,21,08,59,18.10
2012,06,21,09,00,18.10
2012,06,21,09,01,18.00
2012,06,21,09,02,18.00
2012,06,21,09,03,18.00
2012,06,21,09,04,17.90
2012,06,21,09,05,18.00
2012,06,21,09,06,17.90
2012,06,21,09,07,17.80
2012,06,21,09,08,17.80
2012,06,21,09,09,17.90
2012,06,21,09,10,17.90
2012,06,21,09,11,17.90
2012,06,21,09,12,17.90
2012,06,21,09,13,18.00
2012,06,21,09,14,18.00
2012,06,21,09,15,18.10
2012,06,21,09,16,18.10
2012,06,21,09,17,18.20
2012,06,21,09,18,18.20
2012,06,21,09,19,18.20
2012,06,21,09,20,18.20
2012,06,21,09,21,18.20
2012,06,21,09,22,18.20
2012,06,21,09,23,18.30
2012,06,21,09,24,18.30
2012,06,21,09,25,18.30
2012,06,21,09,26,18.30
2012,06,21,09,27,18.30
2012,06,21,09,28,18.30
2012,06,21,09,29,18.30
2012,06,21,09,30,18.30
2012,06,21,09,31,18.30
2012,06,21,09,32,18.40
2012,06,21,09,33,18.40
2012,06,21,09,34,18.40
2012,06,21,09,35,18.40
2012,06,21,09,36,18.40
2012,06,21,09,37,18.40
2012,06,21,09,38,18.40
2012,06,21,09,39,18.40
2012,06,21,09,40,18.50
2012,06,21,09,41,18.60
2012,06,21,09,42,18.60
2012,06,21,09,43,18.70
2012,06,21,09,44,18.70
2012,06,21,09,45,18.80
2012,06,21,09,46,18.80
2012,06,21,09,47,18.70
2012,06,21,09,48,18.70
2012,06,21,09,49,18.70
2012,06,21,09,50,18.70
2012,06,21,09,51,18.70
2012,06,21,09,52,18.70
2012,06,21,09,53,18.60
2012,06,21,09,54,18.60
2012,06,21,09,55,18.50
2012,06,21,09,56,18.40
2012,06,21,09,57,18.40
2012,06,21,09,58,18.40
2012,06,21,09,59,18.30
2012,06,21,10,00,18.30
2012,06,21,10,01,18.30
2012,06,21,10,02,18.40
2012,06,21,10,03,18.40
2012,06,21,10,04,18.50
2012,06,21,10,05,18.50
2012,06,21,10,06,18.60
2012,06,21,10,07,18.70
2012,06,21,10,08,18.80
2012,06,21,10,09,18.80
2012,06,21,10,10,18.80
2012,06,21,10,11,18.90
2012,06,21,10,12,18.80
2012,06,21,10,13,18.80
2012,06,21,10,14,18.80
2012,06,21,10,15,18.80
2012,06,21,10,16,18.70
2012,06,21,10,17,18.70
2012,06,21,10,18,18.70
2012,06,21,10,19,18.80
2012,06,21,10,20,18.80
2012,06,21,10,21,18.90
2012,06,21,10,22,18.90
2012,06,21,10,23,18.90
2012,06,21,10,24,18.90
2012,06,21,10,25,18.90
2012,06,21,10,26,18.90
2012,06,21,10,27,18.90
2012,06,21,10,28,19.00
2012,06,21,10,29,19.10
2012,06,21,10,30,19.10
2012,06,21,10,31,19.20
2012,06,21,10,32,19.20
2012,06,21,10,33,19.30
2012,06,21,10,34,19.40
2012,06,21,10,35,19.50
2012,06,21,10,36,19.60
2012,06,21,10,37,19.70
2012,06,21,10,38,19.70
2012,06,21,10,39,19.70
2012,06,21,10,40,19.70
2012,06,21,10,41,19.60
2012,06,21,10,42,19.50
2012,06,21,10,43,19.40
2012,06,21,10,44,19.30
2012,06,21,10,45,19.20
2012,06,21,10,46,19.10
2012,06,21,10,47,19.00
2012,06,21,10,48,19.00
2012,06,21,10,49,19.00
2012,06,21,10,50,18.90
2012,06,21,10,51,19.00
2012,06,21,10,52,19.00
2012,06,21,10,53,19.10
2012,06,21,10,54,19.10
2012,06,21,10,55,19.10
2012,06,21,10,56,19.20
2012,06,21,10,57,19.20
2012,06,21,10,58,19.20
2012,06,21,10,59,19.30
2012,06,21,11,00,19.40
2012,06,21,11,01,19.50
2012,06,21,11,02,19.50
2012,06,21,11,03,19.60
2012,06,21,11,04,19.60
2012,06,21,11,05,19.50
2012,06,21,11,06,19.50
2012,06,21,11,07,19.40
2012,06,21,11,08,19.40
2012,06,21,11,09,19.40
2012,06,21,11,10,19.40
2012,06,21,11,11,19.40
2012,06,21,11,12,19.40
2012,06,21,11,13,19.50
2012,06,21,11,14,19.60
2012,06,21,11,15,19.70
2012,06,21,11,16,19.70
2012,06,21,11,17,19.70
2012,06,21,11,18,19.80
2012,06,21,11,19,19.80
2012,06,21,11,20,19.80
2012,06,21,11,21,19.80
2012,06,21,11,22,19.80
2012,06,21,11,23,19.90
2012,06,21,11,24,19.90
2012,06,21,11,25,19.80
2012,06,21,11,26,19.80
2012,06,21,11,27,19.70
2012,06,21,11,28,19.70
2012,06,21,11,29,19.70
2012,06,21,11,30,19.60
2012,06,21,11,31,19.60
2012,06,21,11,32,19.60
2012,06,21,11,33,19.50
2012,06,21,11,34,19.60
2012,06,21,11,35,19.60
2012,06,21,11,36,19.60
2012,06,21,11,37,19.70
2012,06,21,11,38,19.70
2012,06,21,11,39,19.60
2012,06,21,11,40,19.60
2012,06,21,11,41,19.50
2012,06,21,11,42,19.50
2012,06,21,11,43,19.50
2012,06,21,11,44,19.60
2012,06,21,11,45,19.60
2012,06,21,11,46,19.70
2012,06,21,11,47,19.80
2012,06,21,11,48,19.90
2012,06,21,11,49,20.00
2012,06,21,11,50,20.10
2012,06,21,11,51,20.20
2012,06,21,11,52,20.20
2012,06,21,11,53,20.20
2012,06,21,11,54,20.20
2012,06,21,11,55,20.30
2012,06,21,11,56,20.40
2012,06,21,11,57,20.50
2012,06,21,11,58,20.60
2012,06,21,11,59,20.60
2012,06,21,12,00,20.60
2012,06,21,12,01,20.60
2012,06,21,12,02,20.60
2012,06,21,12,03,20.60
2012,06,21,12,04,20.60
2012,06,21,12,05,20.60
2012,06,21,12,06,20.70
2012,06,21,12,07,20.80
2012,06,21,12,08,20.80
2012,06,21,12,09,20.90
2012,06,21,12,10,21.00
2012,06,21,12,11,21.00
2012,06,21,12,12,21.00
2012,06,21,12,13,21.00
2012,06,21,12,14,21.10
2012,06,21,12,15,21.10
2012,06,21,12,16,21.10
2012,06,21,12,17,21.00
2012,06,21,12,18,21.00
2012,06,21,12,19,21.00
2012,06,21,12,20,21.00
2012,06,21,12,21,21.00
2012,06,21,12,22,21.00
2012,06,21,12,23,20.90
2012,06,21,12,24,20.70
2012,06,21,12,25,20.60
2012,06,21,12,26,20.40
2012,06,21,12,27,20.30
2012,06,21,12,28,20.30
2012,06,21,12,29,20.30
2012,06,21,12,30,20.30
2012,06,21,12,31,20.30
2012,06,21,12,32,20.40
2012,06,21,12,33,20.40
2012,06,21,12,34,20.40
2012,06,21,12,35,20.40
2012,06,21,12,36,20.30
2012,06,21,12,37,20.30
2012,06,21,12,38,20.30
2012,06,21,12,39,20.30
2012,06,21,12,40,20.40
2012,06,21,12,41,20.40
2012,06,21,12,42,20.50
2012,06,21,12,43,20.50
2012,06,21,12,44,20.60
2012,06,21,12,45,20.70
2012,06,21,12,46,20.70
2012,06,21,12,47,20.70
2012,06,21,12,48,20.80
2012,06,21,12,49,20.90
2012,06,21,12,50,20.90
2012,06,21,12,51,20.90
2012,06,21,12,52,20.90
2012,06,21,12,53,20.90
2012,06,21,12,54,20.90
2012,06,21,12,55,20.90
2012,06,21,12,56,21.00
2012,06,21,12,57,21.00
2012,06,21,12,58,21.10
2012,06,21,12,59,21.20
2012,06,21,13,00,21.30
2012,06,21,13,01,21.40
2012,06,21,13,02,21.40
2012,06,21,13,03,21.50
2012,06,21,13,04,21.60
2012,06,21,13,05,21.70
2012,06,21,13,06,21.70
2012,06,21,13,07,21.70
2012,06,21,13,08,21.70
2012,06,21,13,09,21.70
2012,06,21,13,10,21.70
2012,06,21,13,11,21.70
2012,06,21,13,12,21.70
2012,06,21,13,13,21.60
2012,06,21,13,14,21.60
2012,06,21,13,15,21.50
2012,06,21,13,16,21.40
2012,06,21,13,17,21.30
2012,06,21,13,18,21.20
2012,06,21,13,19,21.10
2012,06,21,13,20,21.10
2012,06,21,13,21,21.10
2012,06,21,13,22,21.10
2012,06,21,13,23,21.10
2012,06,21,13,24,21.20
2012,06,21,13,25,21.30
2012,06,21,13,26,21.50
2012,06,21,13,27,21.60
2012,06,21,13,28,21.80
2012,06,21,13,29,21.90
2012,06,21,13,30,22.00
2012,06,21,13,31,22.10
2012,06,21,13,32,22.20
2012,06,21,13,33,22.30
2012,06,21,13,34,22.40
2012,06,21,13,35,22.40
2012,06,21,13,36,22.40
2012,06,21,13,37,22.30
2012,06,21,13,38,22.30
2012,06,21,13,39,22.30
2012,06,21,13,40,22.30
2012,06,21,13,41,22.20
2012,06,21,13,42,22.20
2012,06,21,13,43,22.10
2012,06,21,13,44,22.00
2012,06,21,13,45,22.00
2012,06,21,13,46,21.90
2012,06,21,13,47,21.80
2012,06,21,13,48,21.80
2012,06,21,13,49,21.80
2012,06,21,13,50,21.80
2012,06,21,13,51,21.70
2012,06,21,13,52,21.70
2012,06,21,13,53,21.70
2012,06,21,13,54,21.70
2012,06,21,13,55,21.70
2012,06,21,13,56,21.80
2012,06,21,13,57,21.80
2012,06,21,13,58,21.80
2012,06,21,13,59,21.80
2012,06,21,14,00,21.90
2012,06,21,14,01,21.80
2012,06,21,14,02,21.80
2012,06,21,14,03,21.80
2012,06,21,14,04,21.80
2012,06,21,14,05,21.80
2012,06,21,14,06,21.80
2012,06,21,14,07,21.80
2012,06,21,14,08,21.80
2012,06,21,14,09,21.80
2012,06,21,14,10,21.80
2012,06,21,14,11,21.80
2012,06,21,14,12,21.70
2012,06,21,14,13,21.70
2012,06,21,14,14,21.70
2012,06,21,14,15,21.70
2012,06,21,14,16,21.80
2012,06,21,14,17,21.80
2012,06,21,14,18,21.80
2012,06,21,14,19,21.80
2012,06,21,14,20,21.80
2012,06,21,14,21,21.70
2012,06,21,14,22,21.80
2012,06,21,14,23,21.80
2012,06,21,14,24,21.80
2012,06,21,14,25,21.80
2012,06,21,14,26,21.80
2012,06,21,14,27,21.80
2012,06,21,14,28,21.80
2012,06,21,14,29,21.80
2012,06,21,14,30,21.90
2012,06,21,14,31,22.00
2012,06,21,14,32,22.10
2012,06,21,14,33,22.20
2012,06,21,14,34,22.30
2012,06,21,14,35,22.30
2012,06,21,14,36,22.40
2012,06,21,14,37,22.50
2012,06,21,14,38,22.60
2012,06,21,14,39,22.60
2012,06,21,14,40,22.60
2012,06,21,14,41,22.60
2012,06,21,14,42,22.50
2012,06,21,14,43,22.50
2012,06,21,14,44,22.40
2012,06,21,14,45,22.40
2012,06,21,14,46,22.40
2012,06,21,14,47,22.50
2012,06,21,14,48,22.50
2012,06,21,14,49,22.50
2012,06,21,14,50,22.40
2012,06,21,14,51,22.50
2012,06,21,14,52,22.40
2012,06,21,14,53,22.40
2012,06,21,14,54,22.40
2012,06,21,14,55,22.40
2012,06,21,14,56,22.40
2012,06,21,14,57,22.30
2012,06,21,14,58,22.30
2012,06,21,14,59,22.30
2012,06,21,15,00,22.40
2012,06,21,15,01,22.40
2012,06,21,15,02,22.40
2012,06,21,15,03,22.50
2012,06,21,15,04,22.60
2012,06,21,15,05,22.70
2012,06,21,15,06,22.70
2012,06,21,15,07,22.80
2012,06,21,15,08,22.80
2012,06,21,15,09,22.80
2012,06,21,15,10,22.80
2012,06,21,15,11,22.80
2012,06,21,15,12,22.80
2012,06,21,15,13,22.80
2012,06,21,15,14,22.80
2012,06,21,15,15,22.90
2012,06,21,15,16,22.90
2012,06,21,15,17,22.90
2012,06,21,15,18,23.00
2012,06,21,15,19,23.10
2012,06,21,15,20,23.00
2012,06,21,15,21,23.00
2012,06,21,15,22,23.00
2012,06,21,15,23,22.90
2012,06,21,15,24,22.80
2012,06,21,15,25,22.80
2012,06,21,15,26,22.70
2012,06,21,15,27,22.80
2012,06,21,15,28,22.90
2012,06,21,15,29,22.90
2012,06,21,15,30,22.80
2012,06,21,15,31,22.90
2012,06,21,15,32,22.90
2012,06,21,15,33,22.90
2012,06,21,15,34,22.80
2012,06,21,15,35,22.80
2012,06,21,15,36,22.80
2012,06,21,15,37,22.80
2012,06,21,15,38,22.80
2012,06,21,15,39,22.80
2012,06,21,15,40,22.70
2012,06,21,15,41,22.60
2012,06,21,15,42,22.60
2012,06,21,15,43,22.50
2012,06,21,15,44,22.50
2012,06,21,15,45,22.50
2012,06,21,15,46,22.50
2012,06,21,15,47,22.50
2012,06,21,15,48,22.50
2012,06,21,15,49,22.50
2012,06,21,15,50,22.50
2012,06,21,15,51,22.40
2012,06,21,15,52,22.40
2012,06,21,15,53,22.40
2012,06,21,15,54,22.30
2012,06,21,15,55,22.30
2012,06,21,15,56,22.40
2012,06,21,15,57,22.40
2012,06,21,15,58,22.50
2012,06,21,15,59,22.50
2012,06,21,16,00,22.50
2012,06,21,16,01,22.50
2012,06,21,16,02,22.40
2012,06,21,16,03,22.50
2012,06,21,16,04,22.50
2012,06,21,16,05,22.50
2012,06,21,16,06,22.50
2012,06,21,16,07,22.50
2012,06,21,16,08,22.50
2012,06,21,16,09,22.50
2012,06,21,16,10,22.60
2012,06,21,16,11,22.60
2012,06,21,16,12,22.70
2012,06,21,16,13,22.70
2012,06,21,16,14,22.70
2012,06,21,16,15,22.80
2012,06,21,16,16,22.70
2012,06,21,16,17,22.70
2012,06,21,16,18,22.70
2012,06,21,16,19,22.70
2012,06,21,16,20,22.70
2012,06,21,16,21,22.60
2012,06,21,16,22,22.60
2012,06,21,16,23,22.50
2012,06,21,16,24,22.50
2012,06,21,16,25,22.40
2012,06,21,16,26,22.40
2012,06,21,16,27,22.50
2012,06,21,16,28,22.50
2012,06,21,16,29,22.60
2012,06,21,16,30,22.60
2012,06,21,16,31,22.60
2012,06,21,16,32,22.70
2012,06,21,16,33,22.80
2012,06,21,16,34,22.80
2012,06,21,16,35,22.90
2012,06,21,16,36,22.90
2012,06,21,16,37,22.90
2012,06,21,16,38,23.00
2012,06,21,16,39,23.00
2012,06,21,16,40,23.00
2012,06,21,16,41,22.90
2012,06,21,16,42,22.90
2012,06,21,16,43,22.90
2012,06,21,16,44,23.00
2012,06,21,16,45,23.00
2012,06,21,16,46,22.90
2012,06,21,16,47,22.90
2012,06,21,16,48,22.90
2012,06,21,16,49,22.80
2012,06,21,16,50,22.80
2012,06,21,16,51,22.80
2012,06,21,16,52,22.80
2012,06,21,16,53,22.80
2012,06,21,16,54,22.90
2012,06,21,16,55,22.90
2012,06,21,16,56,23.00
2012,06,21,16,57,23.00
2012,06,21,16,58,23.00
2012,06,21,16,59,23.00
2012,06,21,17,00,23.10
2012,06,21,17,01,23.10
2012,06,21,17,02,23.10
2012,06,21,17,03,23.20
2012,06,21,17,04,23.20
2012,06,21,17,05,23.30
2012,06,21,17,06,23.40
2012,06,21,17,07,23.40
2012,06,21,17,08,23.40
2012,06,21,17,09,23.40
2012,06,21,17,10,23.40
2012,06,21,17,11,23.30
2012,06,21,17,12,23.30
2012,06,21,17,13,23.20
2012,06,21,17,14,23.10
2012,06,21,17,15,23.10
2012,06,21,17,16,23.00
2012,06,21,17,17,23.00
2012,06,21,17,18,23.00
2012,06,21,17,19,23.10
2012,06,21,17,20,23.10
2012,06,21,17,21,23.00